Ellensburg, WA

2:22 PM PDT on March 24, 2017 (GMT -0700)
Bowers

Weather History for KELN - January, 2012

Change the Weather History Date:

Monday, January 23, 2012

  Actual Average (KYKM) Record (KYKM)
Temperature  
Mean Temperature 18 °F -  
Max Temperature 25 °F 39 °F 61 °F (1953)
Min Temperature 10 °F 24 °F -7 °F (1969)
Degree Days  
Heating Degree Days 48    
Moisture  
Dew Point 11 °F    
Average Humidity 82    
Maximum Humidity 88    
Minimum Humidity 69    
Precipitation  
Precipitation 0.01 in - - ()
Sea Level Pressure  
Sea Level Pressure 29.93 in    
Wind  
Wind Speed 2 mph (ENE)    
Max Wind Speed 8 mph    
Max Gust Speed -    
Visibility 4 miles    
Events Fog    
Averages and records for this station are not official NWS values.
T = Trace of Precipitation, MM = Missing Value Source: NWS Daily Summary

Daily Weather History Graph

Daily Weather History Graph

Search for Another Location

Airport or City:

Trip Planner

Search our weather history database for the weather conditions in past years. The results will help you decide how hot, cold, wet, or windy it might be!

Date:

Astronomy

Jan. 23, 2012 Rise Set
Actual Time 7:37 AM PST 4:50 PM PST
Civil Twilight 7:04 AM PST 5:24 PM PST
Nautical Twilight 6:26 AM PST 6:01 PM PST
Astronomical Twilight 5:50 AM PST 6:37 PM PST
Moon 7:31 AM PST (1/23) 5:50 PM PST (1/23)
Length of Visible Light 10h 20m
Length of Day
9h 13m
New Moon, 0% of the Moon is Illuminated
Jan 23
New Moon
Jan 30
First Quarter
Feb 7
Full
Feb 14
Last Quarter
Feb 21
New

Hourly Weather History & Observations

Time (PST) Temp. Windchill Dew Point Humidity Pressure Visibility Wind Dir Wind Speed Gust Speed Precip Events Conditions
12:53 AM 21.0 °F - 18.0 °F 88% 29.83 in 1.2 mi Calm Calm - N/A   Scattered Clouds
12:55 AM 19.4 °F - 15.8 °F 86% 29.78 in 4.0 mi Calm Calm - N/A   Scattered Clouds
1:24 AM 17.6 °F 7.3 °F 14.0 °F 86% 29.79 in 0.8 mi ENE 8.1 mph - N/A   Mist
1:33 AM 19.4 °F 10.4 °F 15.8 °F 86% 29.79 in 0.5 mi NE 6.9 mph - N/A Fog Light Freezing Fog
1:38 AM 19.4 °F 11.5 °F 15.8 °F 86% 29.79 in 2.5 mi ENE 5.8 mph - N/A   Mostly Cloudy
1:45 AM 19.4 °F 10.4 °F 15.8 °F 86% 29.80 in 6.0 mi NE 6.9 mph - N/A   Scattered Clouds
1:53 AM 19.0 °F 11.1 °F 14.0 °F 81% 29.86 in 7.0 mi ENE 5.8 mph - N/A   Partly Cloudy
2:40 AM 15.8 °F - 12.2 °F 86% 29.81 in 1.8 mi Calm Calm - N/A   Partly Cloudy
2:45 AM 17.6 °F - 12.2 °F 79% 29.80 in 0.8 mi Calm Calm - N/A   Mist
2:53 AM 16.0 °F - 12.0 °F 84% 29.87 in 0.2 mi Calm Calm - N/A Fog Light Freezing Fog
3:07 AM 14.0 °F - 10.4 °F 86% 29.81 in 0.2 mi Calm Calm - N/A Fog Light Freezing Fog
3:14 AM 15.8 °F - 10.4 °F 79% 29.80 in 0.2 mi Calm Calm - N/A Fog Light Freezing Fog
3:23 AM 15.8 °F 10.2 °F 10.4 °F 79% 29.81 in 0.2 mi North 3.5 mph - N/A   Haze
3:50 AM 17.6 °F 12.3 °F 12.2 °F 79% 29.81 in 0.5 mi NE 3.5 mph - N/A   Haze
4:07 AM 15.8 °F 8.6 °F 12.2 °F 86% 29.81 in 0.2 mi SSE 4.6 mph - N/A Fog Light Freezing Fog
4:22 AM 14.0 °F 6.5 °F 10.4 °F 86% 29.82 in 0.2 mi ENE 4.6 mph - N/A Fog Light Freezing Fog
4:36 AM 15.8 °F 10.2 °F 10.4 °F 79% 29.83 in 0.2 mi ESE 3.5 mph - N/A Fog Light Freezing Fog
4:53 AM 15.1 °F 9.4 °F 10.9 °F 84% 29.90 in 0.2 mi South 3.5 mph - N/A Fog Light Freezing Fog
5:29 AM 14.0 °F - 10.4 °F 86% 29.84 in 0.5 mi Calm Calm - N/A Fog Light Freezing Fog
5:48 AM 10.4 °F - 5.0 °F 79% 29.85 in 0.8 mi Calm Calm - N/A   Haze
5:53 AM 10.9 °F - 7.0 °F 84% 29.92 in 0.2 mi Calm Calm - N/A Fog Light Freezing Fog
6:01 AM 12.2 °F - 8.6 °F 85% 29.85 in 0.2 mi Calm Calm - N/A Fog Light Freezing Fog
6:24 AM 14.0 °F - 10.4 °F 86% 29.86 in - North - - N/A   Unknown
6:53 AM - - - N/A% 29.87 in - North - - N/A   Unknown
8:53 AM - - - N/A% 29.92 in - North - - N/A   Unknown
9:53 AM - - - N/A% 29.95 in - North - - N/A   Unknown
10:53 AM - - - N/A% 29.96 in - North - - N/A   Unknown
11:31 AM 19.4 °F - 15.8 °F 86% 29.96 in 9.0 mi Calm Calm - N/A   Scattered Clouds
11:53 AM 19.0 °F 12.3 °F 12.9 °F 77% 30.04 in 10.0 mi WNW 4.6 mph - N/A   Clear
12:53 PM 21.9 °F 17.2 °F 16.0 °F 78% 30.03 in 9.0 mi South 3.5 mph - N/A   Clear
1:53 PM 25.0 °F - 16.0 °F 69% 30.05 in 8.0 mi Calm Calm - N/A   Clear
2:53 PM 24.1 °F - 17.1 °F 75% 30.05 in 9.0 mi Calm Calm - 0.01 in   Clear
3:53 PM 21.9 °F - 15.1 °F 75% 30.07 in 8.0 mi Calm Calm - N/A   Clear
4:53 PM 16.0 °F - 10.9 °F 81% 30.09 in 7.0 mi Calm Calm - N/A   Clear
5:53 PM 16.0 °F - 10.9 °F 81% 30.11 in 7.0 mi Calm Calm - N/A   Clear
6:53 PM 10.9 °F 2.9 °F 6.1 °F 81% 30.03 in 7.0 mi SE 4.6 mph - N/A   Clear
7:53 PM 10.0 °F - 6.1 °F 84% 30.03 in 8.0 mi Calm Calm - N/A   Clear
8:46 PM 10.4 °F - 5.0 °F 79% 30.05 in 1.8 mi Calm Calm - N/A   Haze
8:53 PM 10.9 °F - 6.1 °F 81% 30.05 in 1.0 mi Calm Calm - N/A   Haze
9:03 PM 12.2 °F 4.3 °F 8.6 °F 85% 30.06 in 0.8 mi WNW 4.6 mph - N/A   Mist
9:20 PM 10.4 °F 4.0 °F 6.8 °F 85% 30.06 in 1.2 mi NW 3.5 mph - N/A   Scattered Clouds
9:28 PM 10.4 °F - 6.8 °F 85% 30.06 in 3.0 mi Calm Calm - N/A   Scattered Clouds
9:53 PM 12.9 °F 6.9 °F 8.1 °F 81% 30.08 in 10.0 mi NNE 3.5 mph - N/A   Clear
10:53 PM 14.0 °F - 9.0 °F 80% 30.08 in 8.0 mi Calm Calm - N/A   Clear
11:53 PM 16.0 °F - 10.9 °F 81% 30.16 in 10.0 mi Calm Calm - N/A   Clear